Wind_Speed
11 10 10 11 12 11 9 9 8 9 8 8 8 7 7 7 7 7 7 6 6 5 5 5 6 5 6 6 6 6 5 5 6 6 6 7 7 7 7 8 7 8 9 11 11 12 10 10 10
11 11 11 11 12 9 9 8 8 9 8 8 8 7 7 7 7 6 6 6 5 5 5 5 5 5 6 6 5 5 6 6 5 6 6 7 7 7 7 8 7 7 9 12 12 12 11 11 9
11 11 11 12 11 9 9 9 9 9 9 8 8 7 7 7 7 6 6 5 6 5 5 5 5 5 5 6 5 5 6 5 5 6 5 5 6 6 6 8 8 8 10 13 12 11 11 10 8
11 11 11 11 10 9 8 9 9 9 9 9 8 8 8 7 7 7 6 6 5 5 5 4 5 5 5 5 6 6 6 6 6 6 6 5 6 6 6 8 9 11 12 12 11 10 10 9 8
11 11 10 10 9 9 8 9 9 9 10 10 9 9 9 8 7 7 7 7 6 6 6 6 5 5 6 6 6 6 6 6 6 6 5 6 7 7 8 10 10 11 12 12 11 10 10 8 8
10 11 10 9 8 8 8 8 9 10 10 10 9 9 10 9 8 7 7 7 7 7 7 7 7 7 7 7 7 7 7 6 6 6 6 6 7 8 9 10 11 10 11 10 9 9 8 8 7
10 10 10 9 9 8 8 9 9 9 10 10 9 9 9 9 8 7 7 7 7 7 8 8 8 8 8 8 8 8 8 7 7 8 7 8 8 8 9 10 10 10 9 9 9 8 8 7 7
9 10 9 9 9 9 9 8 9 9 9 9 9 9 9 9 8 8 8 8 8 8 8 8 8 9 9 10 9 9 9 8 8 8 8 9 9 9 9 9 9 9 8 7 7 6 6 6 6
9 10 8 8 8 9 9 8 8 8 8 9 9 9 9 9 9 8 7 7 7 7 7 8 8 9 9 10 11 11 10 9 9 8 8 9 9 9 8 8 8 7 7 6 6 6 5 5 5
9 9 7 7 8 8 8 8 9 9 8 8 8 8 8 8 8 8 7 7 7 7 8 8 9 9 9 10 11 11 11 10 9 8 8 8 8 9 8 8 7 6 6 6 5 5 4 4 4
8 8 7 7 7 7 8 8 8 9 8 8 8 8 8 8 8 8 7 7 7 8 8 8 9 9 10 10 10 11 11 10 9 8 8 8 8 9 8 7 6 6 5 4 4 3 3 3 3
7 7 7 7 7 7 7 7 8 8 8 8 8 8 8 8 8 8 8 8 8 8 8 8 9 9 9 9 9 10 10 10 9 8 7 8 8 8 7 6 6 5 5 3 3 3 2 2 2
6 6 6 6 6 6 6 6 7 7 8 8 8 8 8 8 8 8 8 8 8 8 8 8 8 9 9 10 9 9 9 9 9 8 7 6 7 7 7 6 6 5 4 4 3 3 2 2 2
5 5 6 5 5 5 5 5 6 6 7 7 7 7 7 7 7 7 7 7 7 7 7 7 8 8 8 9 8 8 9 9 8 8 8 7 7 6 6 6 5 4 4 3 3 2 2 2 2
5 5 4 4 4 4 5 5 4 5 6 6 6 6 6 6 6 6 6 6 6 6 6 7 7 7 7 7 8 8 8 8 7 7 7 7 6 6 5 5 4 3 3 2 2 1 1 1 1
4 3 2 2 2 2 4 4 3 3 4 4 5 5 5 4 5 5 5 5 5 5 6 6 6 6 5 5 6 7 7 6 6 6 6 6 5 5 5 5 4 3 2 2 2 2 1 0 1
4 4 3 1 0 1 2 2 2 2 3 3 3 4 3 3 3 4 4 4 4 4 5 5 5 5 4 4 4 5 5 5 5 5 5 5 4 4 4 4 4 4 4 3 2 2 1 1 1
7 6 4 3 2 1 0 1 1 2 2 2 2 2 2 2 2 3 3 3 3 3 4 4 5 4 4 4 3 3 4 4 4 4 3 4 4 3 3 4 4 4 4 3 2 1 1 1 2
9 7 5 5 4 2 2 2 2 2 2 2 2 2 2 2 1 1 2 2 3 3 3 3 3 3 3 3 2 2 3 3 3 2 2 3 4 4 4 4 4 4 4 3 3 2 3 2 3
9 7 6 7 6 4 4 4 4 3 3 2 2 3 3 3 2 1 1 1 2 2 2 2 2 2 2 2 1 2 2 2 2 2 2 2 2 3 3 3 4 3 3 3 3 3 3 3 3
10 9 9 8 7 6 5 5 5 4 4 3 3 4 4 4 3 2 2 1 1 1 1 1 0 1 1 1 2 2 2 2 3 2 2 2 2 3 3 3 3 4 4 4 4 3 3 3 4
11 12 10 9 7 7 6 5 6 5 5 4 4 5 5 5 5 4 4 4 3 3 2 2 2 3 3 3 3 3 4 4 3 3 3 3 3 3 4 4 4 4 4 4 5 4 4 4 5
12 12 11 9 9 7 7 5 6 6 6 6 6 5 6 6 6 6 6 6 6 5 5 5 5 4 5 4 4 5 5 5 5 5 4 4 4 5 5 6 5 5 5 5 6 5 5 5 5
12 11 10 10 9 8 8 6 6 7 7 7 7 6 7 7 7 7 8 8 8 8 7 7 7 7 7 6 6 6 6 6 6 6 6 5 5 6 7 7 7 6 6 7 7 6 6 6 7
13 11 9 9 9 10 10 8 8 8 7 7 7 8 8 8 8 8 9 9 9 9 9 9 9 9 9 8 8 8 8 8 8 8 8 7 8 8 8 8 8 8 9 8 8 8 8 8 8
14 12 11 10 10 10 10 9 8 8 8 8 8 8 9 9 9 10 10 9 10 10 11 11 11 11 11 11 11 11 10 10 10 10 10 10 10 10 10 10 10 10 10 10 10 9 10 10 10
15 14 13 12 11 10 10 10 9 9 9 9 9 9 9 9 10 10 11 11 11 12 12 12 12 12 13 13 13 13 13 12 12 12 12 12 12 12 12 11 11 12 12 12 12 11 12 12 13
17 15 14 13 12 11 10 10 11 11 11 10 10 10 10 10 11 11 11 11 11 12 13 14 14 14 15 14 14 14 14 15 15 15 14 13 13 13 13 13 13 13 13 14 13 14 14 14 15
18 17 16 16 15 13 11 12 14 13 13 12 12 11 11 12 13 12 12 12 12 13 14 15 16 15 16 16 16 16 16 16 16 16 16 15 15 14 15 14 14 14 14 14 14 15 16 16 17
19 19 18 17 17 16 14 15 16 15 15 14 13 13 13 14 14 14 14 14 14 14 15 16 17 17 18 18 18 18 18 18 18 17 17 16 16 16 16 16 16 16 16 16 17 17 18 18 18
Wind_Direction
90 87 85 88 89 85 85 87 89 91 92 89 88 86 82 76 75 77 71 72 71 78 77 78 80 83 81 84 81 82 83 83 87 96 116 132 134 135 138 145 148 150 151 151 154 160 159 157 158
87 87 88 89 87 86 84 86 88 91 91 90 88 85 79 76 74 75 75 76 75 82 83 79 72 73 82 84 82 83 82 82 90 103 118 131 134 137 138 141 144 153 158 154 154 157 156 156 153
86 88 90 89 87 86 84 86 89 89 86 84 85 82 78 78 76 77 78 81 78 86 86 84 80 80 76 80 87 87 84 84 91 107 116 127 132 138 140 142 140 137 142 146 149 152 153 157 153
85 89 86 85 82 83 84 88 90 88 85 83 84 82 79 81 79 79 82 86 82 87 88 83 87 85 73 72 77 82 82 86 92 100 113 123 132 139 138 137 137 137 137 140 147 145 148 150 148
86 84 83 83 82 87 88 90 87 86 86 83 83 82 82 82 81 80 81 80 80 79 81 77 80 78 72 73 80 82 83 89 96 102 110 119 131 134 130 130 132 133 140 139 141 146 147 147 140
85 85 88 87 86 90 91 93 88 87 88 84 82 82 82 82 82 82 82 81 82 82 80 75 76 75 72 73 80 80 88 97 100 103 108 121 136 140 136 132 130 131 137 142 146 146 151 149 139
85 92 92 91 90 90 91 94 89 86 86 84 81 81 82 81 81 82 84 88 88 83 77 70 70 71 70 75 83 85 89 97 100 103 103 114 125 134 137 131 129 129 134 134 138 139 147 150 148
84 88 89 93 92 89 91 90 86 84 82 82 83 81 81 80 78 80 81 86 86 82 78 76 73 73 74 76 80 83 87 92 98 101 104 108 117 125 129 129 126 127 129 133 136 141 143 144 142
89 89 94 93 93 89 86 85 84 83 79 79 81 82 81 77 77 80 80 83 86 86 84 81 81 77 76 77 77 81 81 84 90 95 103 111 118 123 127 123 120 122 125 130 140 148 149 150 148
94 99 96 95 93 90 83 82 83 82 79 76 80 84 80 76 76 77 81 88 89 91 92 88 84 80 78 78 80 82 84 83 88 95 100 110 117 118 118 116 118 124 127 130 136 146 156 162 157
101 99 91 91 91 88 81 81 81 77 73 73 76 80 79 77 76 77 81 86 90 92 94 92 87 85 84 85 88 86 87 85 87 90 97 103 109 113 113 114 117 121 122 127 137 143 161 169 168
108 102 94 93 91 85 79 77 75 73 71 71 73 74 77 78 79 80 83 87 92 96 95 92 88 90 88 87 89 89 87 86 87 87 93 98 103 108 110 113 111 117 128 129 134 147 152 162 179
113 106 107 101 90 80 76 75 71 68 66 68 73 77 80 81 82 82 84 87 93 98 98 95 94 94 93 89 87 87 85 88 87 84 86 94 98 102 110 113 113 112 111 115 127 137 142 168 191
118 115 114 106 92 76 73 71 66 61 59 63 69 75 82 82 84 86 85 87 91 97 100 100 99 97 95 91 90 86 86 85 80 81 83 86 92 93 95 101 106 106 113 119 118 126 139 152 187
131 118 105 97 93 84 78 70 66 60 58 60 63 67 73 79 84 88 89 88 89 94 97 102 103 100 96 92 91 87 82 81 78 79 79 82 86 88 90 93 98 96 108 121 100 99 135 175 203
159 134 107 91 88 88 85 71 69 58 53 54 55 57 61 71 84 86 88 88 86 89 92 96 101 101 95 91 90 85 81 80 78 71 72 77 83 91 93 87 84 87 98 102 91 81 76 289 228
187 185 196 212 139 89 84 68 55 40 33 38 40 46 51 60 77 81 83 84 84 84 83 87 99 98 96 92 82 83 84 80 74 68 68 71 77 89 98 92 77 72 69 91 101 79 58 19 292
208 207 218 232 233 203 66 24 8 357 359 354 2 13 12 27 52 73 80 84 88 83 76 81 97 92 89 87 87 83 81 77 67 62 57 55 61 70 80 80 70 66 67 67 64 43 4 322 310
210 216 227 234 230 240 267 295 305 316 323 310 306 312 333 337 357 41 59 76 81 77 79 81 82 79 80 77 73 62 46 48 47 53 53 47 49 54 63 60 49 46 47 40 35 19 7 333 310
215 219 234 243 242 255 280 289 294 303 306 294 290 286 283 291 292 312 18 57 73 70 65 75 76 66 59 52 28 15 10 17 24 21 25 27 27 27 35 39 32 22 17 14 10 20 18 351 339
219 222 228 241 251 262 278 295 295 293 292 289 280 273 269 265 266 269 276 295 306 328 11 10 359 349 353 342 336 332 333 340 343 331 325 334 347 356 352 359 4 0 356 346 338 340 337 326 328
227 230 235 242 249 264 269 279 286 282 282 284 282 265 258 253 257 262 265 268 273 280 280 285 291 296 301 301 302 310 321 323 322 314 314 312 317 326 327 323 330 334 332 328 326 320 320 314 315
227 233 239 245 247 252 259 262 273 274 275 273 269 253 247 249 250 258 265 263 264 269 275 279 288 288 292 292 296 300 308 319 325 314 303 295 301 308 309 307 308 316 317 319 320 318 314 313 311
233 238 243 249 256 255 253 253 264 268 271 269 260 252 247 251 254 261 265 264 263 264 271 277 280 281 283 285 289 293 302 311 315 316 301 290 292 295 298 299 299 298 300 302 303 303 308 309 306
233 236 246 257 258 258 257 254 256 259 260 257 252 251 253 253 253 258 264 268 266 265 268 274 275 277 278 281 284 287 295 302 304 304 298 290 290 292 295 296 293 290 291 292 294 296 299 302 304
235 234 238 244 247 255 264 254 256 253 254 255 255 256 256 257 255 259 265 269 269 268 267 269 272 272 273 277 280 284 289 292 296 297 295 290 286 288 291 290 288 288 288 288 290 293 294 299 302
235 236 238 241 246 249 252 254 258 255 254 255 257 257 254 255 260 263 262 263 265 269 269 271 268 268 272 276 279 282 283 286 290 293 292 290 288 289 287 287 287 286 287 286 286 288 292 295 298
235 239 240 237 244 248 256 257 259 256 256 259 261 260 258 256 261 262 262 261 263 268 271 271 270 272 275 278 279 281 282 284 287 287 287 288 286 287 288 285 285 284 285 286 284 284 287 290 291
240 240 242 240 240 245 255 256 257 259 260 263 267 267 263 257 261 264 263 265 268 269 269 268 270 273 277 281 282 284 285 286 287 287 286 286 286 285 286 286 286 286 286 285 284 284 286 288 289
243 241 243 244 247 247 250 257 259 257 261 260 262 263 263 262 263 264 266 269 271 270 268 268 268 272 276 278 280 281 283 285 286 287 286 286 286 285 285 286 286 286 286 284 282 282 283 285 286
Height
5897 5896 5896 5897 5898 5898 5897 5897 5896 5895 5894 5894 5893 5892 5892 5891 5891 5892 5889 5887 5886 5885 5884 5883 5883 5882 5881 5880 5879 5878 5877 5875 5874 5872 5871 5871 5872 5872 5872 5872 5873 5873 5874 5874 5876 5879 5880 5882 5883
5898 5898 5899 5899 5899 5899 5899 5898 5897 5896 5895 5894 5894 5893 5892 5891 5891 5890 5889 5888 5887 5886 5885 5884 5884 5883 5881 5880 5879 5878 5877 5876 5874 5873 5873 5873 5872 5872 5872 5873 5873 5872 5872 5874 5877 5879 5880 5882 5883
5899 5900 5901 5901 5901 5901 5900 5899 5898 5897 5896 5895 5894 5894 5893 5892 5891 5890 5890 5889 5888 5887 5886 5885 5884 5884 5882 5881 5879 5878 5877 5876 5875 5874 5873 5873 5873 5873 5873 5873 5874 5872 5872 5876 5879 5880 5881 5882 5883
5901 5902 5903 5903 5902 5902 5901 5900 5899 5898 5897 5896 5895 5895 5894 5893 5892 5892 5891 5890 5889 5888 5887 5886 5885 5884 5883 5882 5880 5879 5878 5877 5875 5874 5874 5873 5874 5874 5874 5875 5875 5875 5876 5878 5880 5881 5882 5882 5883
5903 5904 5905 5904 5903 5903 5902 5901 5900 5899 5898 5897 5897 5895 5894 5894 5893 5892 5892 5891 5890 5889 5888 5887 5886 5885 5884 5883 5881 5880 5879 5877 5876 5875 5874 5874 5874 5874 5875 5876 5877 5878 5879 5880 5881 5882 5883 5883 5884
5905 5905 5907 5906 5905 5904 5903 5902 5901 5900 5899 5898 5898 5897 5896 5895 5894 5893 5892 5892 5891 5890 5889 5888 5887 5886 5885 5884 5882 5881 5880 5878 5877 5876 5875 5874 5874 5875 5876 5877 5878 5879 5880 5881 5883 5884 5884 5884 5885
5907 5907 5907 5907 5906 5905 5904 5903 5903 5902 5901 5900 5899 5898 5897 5896 5895 5894 5893 5892 5892 5891 5890 5890 5888 5888 5887 5885 5884 5882 5881 5880 5878 5877 5876 5874 5874 5875 5877 5878 5880 5881 5882 5883 5884 5885 5885 5885 5887
5908 5910 5909 5909 5908 5907 5906 5905 5904 5903 5902 5902 5901 5900 5898 5897 5896 5895 5894 5893 5893 5892 5892 5891 5890 5889 5888 5887 5886 5884 5883 5882 5880 5879 5878 5877 5877 5877 5878 5880 5881 5882 5883 5885 5885 5886 5887 5887 5888
5910 5912 5911 5910 5909 5908 5907 5906 5906 5905 5904 5903 5902 5901 5900 5899 5898 5897 5896 5895 5894 5894 5893 5892 5891 5890 5889 5888 5887 5886 5885 5884 5882 5881 5881 5880 5880 5880 5881 5882 5883 5885 5885 5886 5887 5887 5888 5888 5888
5912 5913 5912 5911 5910 5910 5909 5908 5907 5906 5906 5904 5903 5902 5901 5900 5899 5898 5897 5896 5896 5895 5895 5894 5893 5892 5891 5890 5889 5888 5887 5886 5885 5884 5883 5883 5883 5883 5884 5884 5885 5886 5887 5887 5888 5888 5889 5889 5889
5913 5913 5913 5912 5912 5911 5910 5910 5909 5908 5907 5906 5905 5904 5903 5902 5901 5900 5898 5897 5897 5896 5896 5896 5895 5894 5893 5892 5891 5891 5889 5888 5887 5886 5886 5885 5885 5885 5886 5886 5887 5887 5888 5888 5889 5889 5889 5890 5890
5915 5915 5914 5914 5913 5913 5912 5911 5910 5910 5909 5908 5907 5905 5904 5903 5902 5901 5900 5899 5898 5898 5898 5897 5897 5896 5895 5894 5894 5893 5892 5891 5890 5889 5889 5888 5888 5888 5888 5888 5888 5889 5889 5889 5889 5889 5889 5890 5890
5916 5916 5915 5915 5914 5914 5914 5913 5912 5911 5910 5909 5908 5907 5906 5905 5904 5903 5902 5901 5901 5900 5899 5899 5898 5898 5897 5896 5896 5895 5894 5893 5892 5892 5891 5890 5890 5890 5889 5889 5890 5890 5890 5890 5890 5890 5890 5890 5890
5917 5917 5916 5916 5916 5915 5915 5914 5914 5912 5911 5910 5909 5908 5907 5907 5906 5905 5904 5903 5903 5902 5901 5900 5900 5899 5899 5898 5897 5896 5896 5895 5894 5894 5893 5892 5892 5891 5891 5891 5891 5891 5890 5890 5890 5890 5890 5890 5890
5917 5918 5918 5917 5917 5917 5917 5916 5915 5914 5913 5912 5911 5910 5909 5908 5907 5907 5906 5905 5904 5903 5903 5902 5901 5901 5900 5900 5899 5898 5898 5897 5896 5895 5895 5894 5893 5893 5893 5892 5892 5891 5891 5891 5890 5890 5890 5890 5890
5918 5919 5920 5919 5918 5918 5919 5918 5916 5915 5914 5913 5912 5911 5911 5910 5909 5908 5907 5907 5906 5905 5904 5903 5903 5903 5902 5901 5901 5900 5899 5899 5898 5897 5896 5896 5895 5894 5894 5893 5892 5892 5891 5891 5891 5890 5890 5890 5889
5919 5920 5920 5920 5919 5919 5919 5918 5917 5916 5915 5914 5913 5912 5912 5911 5910 5909 5909 5908 5907 5906 5905 5905 5904 5904 5903 5903 5902 5902 5901 5900 5900 5899 5898 5897 5896 5895 5894 5894 5893 5892 5892 5891 5891 5891 5890 5890 5889
5920 5920 5920 5920 5919 5919 5919 5918 5917 5916 5915 5914 5914 5913 5913 5912 5911 5910 5909 5909 5908 5907 5906 5905 5905 5905 5904 5904 5903 5903 5902 5901 5900 5900 5899 5898 5897 5896 5895 5895 5894 5893 5892 5892 5891 5891 5890 5889 5889
5918 5919 5919 5919 5919 5919 5919 5918 5917 5916 5916 5915 5914 5913 5913 5913 5912 5912 5911 5910 5909 5908 5907 5907 5906 5906 5905 5905 5904 5904 5903 5902 5901 5900 5899 5899 5898 5896 5896 5895 5895 5894 5893 5892 5891 5891 5890 5889 5889
5916 5918 5919 5918 5918 5919 5918 5918 5917 5916 5915 5915 5914 5914 5913 5913 5913 5912 5912 5911 5910 5909 5908 5908 5907 5907 5906 5905 5905 5904 5903 5902 5902 5901 5900 5899 5898 5897 5896 5896 5895 5894 5893 5892 5892 5891 5890 5889 5888
5915 5916 5917 5917 5917 5918 5918 5918 5917 5916 5915 5915 5914 5913 5913 5913 5913 5912 5912 5911 5910 5910 5909 5909 5908 5907 5907 5906 5905 5904 5903 5903 5902 5901 5900 5899 5898 5897 5897 5896 5895 5894 5893 5892 5891 5890 5889 5889 5888
5913 5914 5915 5915 5916 5918 5917 5918 5917 5915 5915 5914 5913 5913 5913 5912 5912 5912 5911 5911 5910 5910 5910 5909 5908 5907 5907 5906 5905 5904 5904 5903 5901 5900 5899 5899 5898 5897 5896 5895 5895 5894 5892 5892 5890 5890 5889 5888 5887
5910 5911 5912 5913 5914 5916 5916 5916 5917 5914 5914 5913 5912 5911 5911 5911 5911 5911 5910 5910 5910 5909 5909 5909 5908 5907 5906 5906 5905 5904 5903 5902 5901 5900 5899 5898 5897 5896 5896 5895 5894 5893 5891 5891 5889 5888 5887 5887 5886
5907 5909 5910 5911 5913 5914 5914 5915 5915 5913 5912 5912 5911 5910 5910 5910 5910 5909 5909 5909 5908 5908 5908 5907 5907 5906 5906 5905 5904 5903 5902 5902 5901 5899 5898 5897 5896 5895 5894 5893 5892 5891 5890 5889 5888 5887 5886 5885 5884
5905 5908 5910 5911 5912 5913 5912 5912 5912 5910 5910 5910 5909 5909 5909 5908 5908 5908 5907 5907 5907 5906 5906 5906 5905 5905 5904 5903 5903 5902 5901 5900 5899 5898 5897 5896 5895 5894 5893 5891 5890 5889 5889 5888 5887 5886 5885 5883 5882
5902 5905 5908 5909 5910 5911 5909 5909 5909 5908 5908 5908 5907 5907 5906 5906 5906 5906 5905 5905 5904 5904 5904 5904 5904 5903 5902 5902 5901 5900 5899 5898 5898 5897 5895 5894 5893 5892 5891 5890 5888 5887 5886 5885 5884 5884 5882 5881 5880
5899 5900 5903 5905 5905 5906 5907 5906 5906 5905 5905 5905 5905 5904 5904 5904 5904 5903 5903 5903 5902 5902 5902 5902 5901 5901 5900 5899 5898 5897 5897 5896 5895 5894 5893 5891 5891 5890 5889 5887 5886 5885 5884 5883 5882 5881 5880 5879 5878
5895 5897 5899 5901 5902 5903 5904 5904 5904 5902 5902 5902 5901 5901 5901 5901 5901 5900 5900 5900 5900 5899 5899 5899 5899 5898 5898 5897 5896 5895 5894 5893 5892 5891 5889 5888 5887 5886 5885 5884 5883 5882 5881 5880 5879 5878 5877 5876 5875
5891 5893 5894 5896 5898 5900 5901 5903 5899 5899 5899 5899 5898 5898 5898 5898 5898 5897 5897 5897 5897 5896 5896 5896 5895 5895 5895 5894 5893 5892 5891 5889 5888 5887 5886 5885 5884 5883 5882 5880 5879 5878 5877 5876 5875 5874 5873 5871 5870
5886 5888 5890 5892 5893 5894 5896 5899 5895 5895 5895 5895 5895 5894 5894 5894 5894 5893 5893 5893 5893 5893 5892 5892 5892 5892 5891 5891 5890 5889 5887 5886 5885 5883 5882 5881 5880 5879 5878 5876 5875 5874 5873 5872 5870 5869 5868 5867 5866